Location: Brindisi
(40.6330°N, 17.9330°E)
Time: 08:42:02
(UTC+02:00)

ISS - Visible Passes

Search period start: 08 May 2021 00:00
Search period end: 18 May 2021 00:00
Orbit: 418 x 421 km, 51.6° (Epoch: 08 May)

Date Brightness Start Highest point End Pass type
(mag) Time Alt. Az. Time Alt. Az. Time Alt. Az.
08 May -1.0 02:49:24 15° NNW 02:50:06 15° NNW 02:52:11 10° NNE visible
08 May -0.8 04:26:07 10° NNW 04:27:59 14° N 04:29:51 10° NE visible
09 May -0.8 02:03:26 16° N 02:03:26 16° N 02:04:53 10° NNE visible
09 May -0.7 03:38:38 10° NNW 03:40:17 13° N 03:41:56 10° NNE visible
10 May -0.3 01:17:27 11° NNE 01:17:27 11° NNE 01:17:36 10° NNE visible
10 May -0.7 02:50:57 10° NNW 02:52:35 13° N 02:54:12 10° NNE visible
10 May -1.0 04:27:52 10° NNW 04:30:24 19° NNE 04:32:56 10° ENE visible
11 May -0.7 02:04:22 13° NNW 02:04:52 14° N 02:06:40 10° NNE visible
11 May -0.7 03:40:34 10° NNW 03:42:45 16° NNE 03:44:56 10° NE visible
12 May -0.4 01:18:16 13° N 01:18:16 13° N 01:19:16 10° NNE visible
12 May -0.6 02:53:12 10° NNW 02:55:04 14° N 02:56:56 10° NE visible
12 May -2.0 04:29:31 10° NW 04:32:39 34° NNE 04:35:47 10° E visible
13 May -0.5 02:05:43 10° NNW 02:07:22 13° N 02:09:01 10° NNE visible
13 May -1.3 03:42:13 10° NW 03:45:05 25° NNE 03:47:57 10° E visible
14 May -0.4 01:18:39 12° NNW 01:19:40 13° N 01:21:16 10° NNE visible
14 May -0.9 02:54:57 10° NNW 02:57:28 19° NNE 03:00:01 10° ENE visible
14 May -3.8 04:31:17 10° NW 04:34:41 89° NE 04:38:03 10° SE visible
14 May -3.2 21:14:25 10° SSW 21:17:30 35° SE 21:20:36 10° ENE visible
14 May -1.9 22:51:17 10° W 22:54:19 31° NNW 22:55:41 23° NNE visible
15 May -0.4 00:30:10 10° NW 00:31:57 13° N 00:33:44 10° NNE visible
15 May -0.6 02:07:38 10° NNW 02:09:50 16° NNE 02:12:01 10° NE visible
15 May -3.0 03:43:54 10° NW 03:47:13 53° NNE 03:50:32 10° ESE visible
15 May -2.4 20:27:39 10° S 20:30:12 20° SE 20:32:47 10° E visible
15 May -2.7 22:03:33 10° WSW 22:06:48 46° NNW 22:10:04 10° NE visible
15 May -0.6 23:42:11 10° NW 23:44:15 15° NNW 23:46:20 10° NNE visible
16 May -0.5 01:20:16 10° NNW 01:22:08 14° N 01:24:01 10° NE visible
16 May -2.1 02:56:34 10° NW 02:59:43 35° NNE 03:02:51 10° E visible
16 May -2.9 04:33:29 10° WNW 04:36:28 29° SW 04:39:27 10° SSE visible
16 May -3.6 21:15:58 10° WSW 21:19:20 76° NW 21:22:42 10° NE visible
16 May -0.8 22:54:11 10° WNW 22:56:35 18° NNW 22:59:00 10° NNE visible
17 May -0.4 00:32:47 10° NNW 00:34:26 13° N 00:36:05 10° NNE visible
17 May -1.4 02:09:17 10° NW 02:12:09 25° NNE 02:15:01 10° E visible
17 May -3.7 03:45:50 10° WNW 03:49:08 51° SW 03:52:24 10° SE visible
17 May -3.8 20:28:35 10° SW 20:31:54 63° SE 20:35:15 10° ENE visible
17 May -1.2 22:06:13 10° WNW 22:08:58 23° NNW 22:11:43 10° NNE visible
17 May -0.4 23:45:06 10° NNW 23:46:43 13° N 23:48:19 10° NNE visible
